Date,TemperatureHighF,TemperatureAvgF,TemperatureLowF,DewpointHighF,DewpointAvgF,DewpointLowF,HumidityHigh,HumidityAvg,HumidityLow,PressureMaxIn,PressureMinIn,WindSpeedMaxMPH,WindSpeedAvgMPH,GustSpeedMaxMPH,PrecipitationSumIn
2013-6-1,61,54,39,41,39,34,87,58,43,30.06,29.84,8,2,8,23.50
2013-6-2,69,54,37,51,43,33,88,68,48,30.05,29.73,16,3,16,23.50
2013-6-3,74,58,44,54,44,36,91,65,29,29.86,29.54,11,2,11,23.50
2013-6-4,63,53,45,42,37,32,70,54,39,30.08,29.85,11,2,11,23.50
2013-6-5,58,49,42,42,39,35,78,67,53,30.08,30.01,7,1,7,23.50
2013-6-6,69,54,36,49,42,32,90,65,44,30.02,29.96,12,2,12,23.50
2013-6-7,76,64,44,55,48,39,85,59,35,29.99,29.71,13,2,13,23.50
2013-6-8,66,62,55,52,49,47,83,65,54,29.73,29.70,6,2,6,0.19
2013-6-10,80,71,62,60,56,53,77,60,47,29.86,29.77,8,2,8,0.19
2013-6-11,73,66,58,60,57,52,86,74,57,29.91,29.79,12,2,12,0.52
2013-6-12,63,58,54,54,51,49,92,77,67,30.08,29.96,8,2,8,0.19
2013-6-13,74,62,47,57,51,44,91,66,44,30.09,29.80,14,3,14,0.19
2013-6-14,81,67,55,55,50,44,82,58,33,29.97,29.71,9,2,9,0.19
2013-6-15,74,62,50,47,44,36,78,54,29,30.00,29.93,13,2,13,0.19
2013-6-16,79,63,48,59,50,42,83,65,44,30.03,29.91,12,2,12,0.19
2013-6-17,72,59,51,56,50,46,90,73,47,30.07,30.01,8,1,8,0.63
2013-6-18,78,65,48,60,53,44,90,67,44,30.02,29.87,13,3,13,0.19
2013-6-19,80,75,57,62,58,48,80,57,39,29.85,29.65,15,4,15,0.19
2013-6-20,83,73,59,61,46,37,76,41,22,29.89,29.67,10,2,10,0.19
2013-6-21,62,59,57,59,55,52,93,85,76,29.89,29.83,6,0,6,0.11
2013-6-26,87,75,60,59,55,47,76,51,28,30.02,29.90,9,2,9,0.04
2013-6-27,84,71,55,59,54,48,82,56,35,30.13,30.01,9,2,9,0.00
2013-6-28,86,70,53,54,50,46,80,52,28,30.17,30.09,13,2,13,0.00
2013-6-29,79,65,52,56,49,43,86,59,39,30.12,30.06,10,2,10,0.00
2013-6-30,81,65,48,54,48,42,81,56,37,30.14,30.08,10,2,10,0.00